ECHOSTAR 23

Last updated on Sun Jun 21 2026 00:03:07 GMT+0000 (Coordinated Universal Time)

1 42070U 17014A 26171.01379684 -.00000062 00000+0 00000+0 0 9998 2 42070 0.0178 9.4528 0002159 78.4628 75.3790 1.00271442 33953
UTC large
Height (km)
Speed (km/s)
/
Latitude / Longitude
Inclination (degrees)
Orbital Period (minutes)
Azimuth
Elevation
Range (km)
Doppler Factor

Next 0 passes for location: London (51.5072 / 0.1276)

No passes found over London.
ECHOSTAR 23